Tracking 29493 objects as of 9-Sep-2024
HD Live streaming from Space Station
objects crossing your sky now

COSMOS 839 DEB

Track COSMOS 839 DEB now!
10-day predictions


NORAD ID: 10410
Int'l Code: 1976-067D
Perigee: 995.0 km
Apogee: 2,092.2 km
Inclination: 66.1 °
Period: 116.8 minutes
Semi major axis: 7914 km
RCS: 0.3034 m2 (medium)
Launch date: July 8, 1976
Source: Commonwealth of Independent States (former USSR) (CIS)
Launch site: PLESETSK MISSILE AND SPACE COMPLEX (PKMTR)

Note: This is SATELLITE DEBRIS
Your satellite tracking list
Your tracking list is empty




NASA's NSSDC Master Catalog

Two Line Element Set (TLE):
1 10410U 76067D   24252.82762203 -.00000032  00000-0  83594-4 0  9996
2 10410  66.0935  26.8776 0693164 280.0119 241.0779 12.32990676168508
Source of the keplerian elements: AFSPC